TimeCDT,TemperatureF,Dew PointF,Humidity,Sea Level PressureIn,VisibilityMPH,Wind Direction,Wind SpeedMPH,Gust SpeedMPH,PrecipitationIn,Events,Conditions,WindDirDegrees,DateUTC
12:51 AM,82.0,75.0,79,29.96,10.0,South,11.5,-,N/A,,Partly Cloudy,170,2013-06-18 05:51:00
1:51 AM,81.0,75.0,82,29.95,10.0,South,9.2,-,N/A,,Partly Cloudy,170,2013-06-18 06:51:00
2:51 AM,81.0,75.0,82,29.92,10.0,South,13.8,-,N/A,,Partly Cloudy,170,2013-06-18 07:51:00
3:51 AM,80.1,75.0,85,29.93,10.0,South,9.2,-,N/A,,Partly Cloudy,170,2013-06-18 08:51:00
4:51 AM,79.0,73.9,84,29.92,10.0,South,6.9,-,N/A,,Partly Cloudy,170,2013-06-18 09:51:00
5:51 AM,77.0,73.0,88,29.93,10.0,SSE,4.6,-,N/A,,Partly Cloudy,150,2013-06-18 10:51:00
6:51 AM,77.0,73.0,88,29.95,9.0,SE,4.6,-,N/A,,Partly Cloudy,130,2013-06-18 11:51:00
7:51 AM,81.0,75.0,82,29.96,10.0,SSE,5.8,-,N/A,,Partly Cloudy,150,2013-06-18 12:51:00
8:51 AM,84.9,75.0,72,29.96,10.0,SSE,15.0,-,N/A,,Scattered Clouds,160,2013-06-18 13:51:00
9:51 AM,89.1,73.9,61,29.95,10.0,South,15.0,-,N/A,,Scattered Clouds,170,2013-06-18 14:51:00
10:51 AM,91.9,72.0,52,29.96,10.0,South,16.1,21.9,N/A,,Scattered Clouds,170,2013-06-18 15:51:00
11:51 AM,93.9,71.1,47,29.95,10.0,SSE,12.7,29.9,N/A,,Scattered Clouds,160,2013-06-18 16:51:00
12:51 PM,95.0,73.0,49,29.95,10.0,SSE,18.4,23.0,N/A,,Scattered Clouds,150,2013-06-18 17:51:00
1:51 PM,96.1,71.1,44,29.94,10.0,SSE,11.5,20.7,N/A,,Scattered Clouds,160,2013-06-18 18:51:00
2:51 PM,96.1,73.0,47,29.92,10.0,ESE,13.8,23.0,N/A,,Mostly Cloudy,110,2013-06-18 19:51:00
3:51 PM,96.1,73.0,47,29.90,10.0,ESE,17.3,24.2,N/A,,Scattered Clouds,110,2013-06-18 20:51:00
4:51 PM,95.0,73.0,49,29.88,10.0,SE,16.1,-,N/A,,Partly Cloudy,140,2013-06-18 21:51:00
5:51 PM,93.0,73.9,54,29.87,10.0,SE,18.4,24.2,N/A,,Partly Cloudy,140,2013-06-18 22:51:00
6:51 PM,90.0,73.9,59,29.87,10.0,SE,18.4,-,N/A,,Partly Cloudy,140,2013-06-18 23:51:00
7:51 PM,88.0,73.9,63,29.88,10.0,SSE,19.6,24.2,N/A,,Partly Cloudy,150,2013-06-19 00:51:00
8:51 PM,84.9,75.0,72,29.89,10.0,SSE,19.6,-,N/A,,Partly Cloudy,150,2013-06-19 01:51:00
9:51 PM,84.0,75.9,76,29.91,10.0,SSE,17.3,-,N/A,,Partly Cloudy,150,2013-06-19 02:51:00
10:51 PM,82.9,75.9,79,29.93,10.0,SSE,12.7,-,N/A,,Partly Cloudy,150,2013-06-19 03:51:00
11:51 PM,82.9,75.9,79,29.94,10.0,SSE,13.8,-,N/A,,Partly Cloudy,150,2013-06-19 04:51:00